| time (UTC) | temp F | wind direction | speed knots | gust knots | rain 1hr in | rain 24hr in | rain mn in | humidity % | barometer mb |
| 20260504041520 | 54 | 206 | 3.5 | 6.1 | 0.00 | 0.00 | 0.00 | 47 | 1003.0 |
| 20260504040018 | 55 | 204 | 4.3 | 7.0 | 0.00 | 0.00 | 0.00 | 46 | 1003.3 |
| 20260504034516 | 56 | 225 | 4.3 | 7.0 | 0.00 | 0.00 | 0.00 | 43 | 1003.5 |
| 20260504033013 | 54 | 212 | 4.3 | 5.2 | 0.00 | 0.00 | 0.00 | 47 | 1003.7 |
| 20260504031510 | 56 | 198 | 3.5 | 5.2 | 0.00 | 0.00 | 0.00 | 44 | 1004.0 |
| 20260504030008 | 57 | 217 | 0.9 | 3.5 | 0.00 | 0.00 | 0.00 | 43 | 1004.1 |
| 20260504024609 | 57 | 212 | 1.7 | 4.3 | 0.00 | 0.00 | 0.00 | 43 | 1004.1 |
| 20260504023053 | 59 | 202 | 0.0 | 2.6 | 0.00 | 0.00 | 0.00 | 39 | 1004.0 |
| 20260504021547 | 63 | 231 | 0.0 | 1.7 | 0.00 | 0.00 | 0.00 | 32 | 1003.9 |
| 20260504020046 | 64 | 260 | 0.0 | 0.9 | 0.00 | 0.00 | 0.00 | 32 | 1003.9 |
| 20260504014546 | 64 | 259 | 0.0 | 1.7 | 0.00 | 0.00 | 0.00 | 32 | 1003.8 |
| 20260504013044 | 64 | 306 | 0.0 | 1.7 | 0.00 | 0.00 | 0.00 | 32 | 1004.0 |
| 20260504011541 | 66 | 319 | 0.0 | 0.9 | 0.00 | 0.00 | 0.00 | 31 | 1004.0 |
| 20260504010039 | 67 | 319 | 0.0 | 2.6 | 0.00 | 0.00 | 0.00 | 30 | 1004.2 |
| 20260504004520 | 69 | 273 | 0.9 | 3.5 | 0.00 | 0.00 | 0.00 | 28 | 1004.3 |
| 20260504003025 | 71 | 309 | 1.7 | 4.3 | 0.00 | 0.00 | 0.00 | 26 | 1004.4 |
| 20260504001600 | 72 | 281 | 2.6 | 7.0 | 0.00 | 0.00 | 0.00 | 26 | 1004.4 |
| 20260504000138 | 72 | 343 | 3.5 | 7.8 | 0.00 | 0.00 | 0.00 | 26 | 1004.5 |
| 20260503234552 | 73 | 295 | 2.6 | 7.8 | 0.00 | 0.00 | 0.00 | 25 | 1004.6 |
| 20260503233042 | 73 | 326 | 3.5 | 9.6 | 0.00 | 0.00 | 0.00 | 25 | 1004.6 |
| 20260503231541 | 73 | 304 | 2.6 | 8.7 | 0.00 | 0.00 | 0.00 | 26 | 1004.7 |
| 20260503230039 | 73 | 292 | 2.6 | 8.7 | 0.00 | 0.00 | 0.00 | 26 | 1004.7 |
| 20260503224539 | 73 | 228 | 1.7 | 12.2 | 0.00 | 0.00 | 0.00 | 28 | 1004.7 |
| 20260503223040 | 73 | 317 | 3.5 | 11.3 | 0.00 | 0.00 | 0.00 | 26 | 1004.8 |
| 20260503221548 | 73 | 330 | 3.5 | 10.4 | 0.00 | 0.00 | 0.00 | 26 | 1004.8 |
| 20260503220034 | 73 | 295 | 3.5 | 13.0 | 0.00 | 0.00 | 0.00 | 28 | 1004.8 |
| 20260503214536 | 73 | 269 | 1.7 | 7.0 | 0.00 | 0.00 | 0.00 | 29 | 1004.9 |
| 20260503213015 | 72 | 302 | 3.5 | 13.0 | 0.00 | 0.00 | 0.00 | 30 | 1005.1 |
| 20260503211515 | 72 | 289 | 5.2 | 13.0 | 0.00 | 0.00 | 0.00 | 30 | 1005.2 |
| 20260503210051 | 71 | 21 | 8.7 | 15.6 | 0.00 | 0.00 | 0.00 | 29 | 1005.5 |
| 20260503204551 | 71 | 313 | 4.3 | 17.4 | 0.00 | 0.00 | 0.00 | 31 | 1005.7 |
| 20260503203041 | 71 | 304 | 5.2 | 16.5 | 0.00 | 0.00 | 0.00 | 32 | 1005.7 |
| 20260503201534 | 71 | 317 | 3.5 | 13.0 | 0.00 | 0.00 | 0.00 | 32 | 1005.7 |
| 20260503200011 | 71 | 314 | 7.0 | 17.4 | 0.00 | 0.00 | 0.00 | 31 | 1006.0 |
| 20260503194513 | 70 | 311 | 5.2 | 12.2 | 0.00 | 0.00 | 0.00 | 33 | 1005.9 |
| 20260503193056 | 70 | 16 | 5.2 | 14.8 | 0.00 | 0.00 | 0.00 | 32 | 1006.1 |
| 20260503191554 | 70 | 326 | 7.0 | 13.9 | 0.00 | 0.00 | 0.00 | 32 | 1006.2 |
| 20260503190053 | 70 | 360 | 5.2 | 16.5 | 0.00 | 0.00 | 0.00 | 31 | 1006.3 |
| 20260503184553 | 70 | 332 | 7.8 | 16.5 | 0.00 | 0.00 | 0.00 | 31 | 1006.3 |
| 20260503183051 | 70 | 321 | 6.1 | 17.4 | 0.00 | 0.00 | 0.00 | 32 | 1006.4 |
| 20260503181600 | 69 | 323 | 7.0 | 17.4 | 0.00 | 0.00 | 0.00 | 31 | 1006.5 |
| 20260503180047 | 69 | 302 | 5.2 | 16.5 | 0.00 | 0.00 | 0.00 | 35 | 1006.5 |
| 20260503174546 | 69 | 317 | 9.6 | 18.2 | 0.00 | 0.00 | 0.00 | 33 | 1006.7 |
| 20260503173040 | 68 | 315 | 6.1 | 15.6 | 0.00 | 0.00 | 0.00 | 35 | 1006.6 |
| 20260503171533 | 68 | 302 | 6.1 | 14.8 | 0.00 | 0.00 | 0.00 | 37 | 1006.7 |
| 20260503081534 | 55 | 160 | 14.8 | 22.6 | 0.00 | 0.00 | 0.00 | 50 | 1006.5 |
| 20260503071555 | 56 | 167 | 11.3 | 21.7 | 0.00 | 0.00 | 0.00 | 47 | 1008.6 |
| 20260503060104 | 58 | 169 | 7.8 | 12.2 | 0.00 | 0.00 | 0.00 | 42 | 1009.3 |
| 20260503054547 | 58 | 183 | 4.3 | 10.4 | 0.00 | 0.00 | 0.00 | 44 | 1009.3 |
| 20260503053027 | 58 | 220 | 13.0 | 20.0 | 0.00 | 0.00 | 0.00 | 43 | 1009.6 |
| 20260503051528 | 58 | 202 | 9.6 | 15.6 | 0.00 | 0.00 | 0.00 | 41 | 1009.4 |
| 20260503050008 | 59 | 174 | 9.6 | 15.6 | 0.00 | 0.00 | 0.00 | 41 | 1009.0 |
| 20260503044505 | 58 | 215 | 12.2 | 17.4 | 0.00 | 0.00 | 0.00 | 41 | 1009.5 |
| 20260503043054 | 58 | 203 | 7.8 | 12.2 | 0.00 | 0.00 | 0.00 | 42 | 1009.8 |